Regional Weather Roundup
Issued by NWS Goodland, KS

Home | Current Version | Previous Version | Graphics & Text | Print | Product List | Glossary On
Versions: 1 2 3 4 5 6 7 8 9 10 11 12 13 14 15 16 17 18 19 20 21 22 23 24 25 26 27 28 29 30 31 32 33 34 35 36 37 38 39 40 41 42 43 44 45 46 47 48 49 50
000
ASUS43 KGLD 221959
RWRGLD

GOODLAND FORECAST AREA HOURLY WEATHER ROUNDUP
NATIONAL WEATHER SERVICE GOODLAND KS
100 PM MST MON DEC 22 2014

...OFFICIAL OBSERVATIONS...

CITY           SKY/WX    TMP DP  RH WIND       PRES   REMARKS
GOODLAND KS    MOSUNNY   46  22  38 NW23G33   29.63F
HILL CITY KS   SUNNY     53  24  32 NW18G32   29.55F
IMPERIAL NEB   MOSUNNY   44  23  43 NW26G35   29.59F
MCCOOK NEB     PTSUNNY   50  25  37 NW24G31   29.55F
AKRON CO       CLOUDY    36  25  64 W9        29.64F
BURLINGTON CO  PTSUNNY   44  21  40 N22G28    29.64F
LIMON CO       CLOUDY    33  25  72 N17       29.69R
$$

...UNOFFICIAL OBSERVATIONS...

CITY           SKY/WX    TMP DP  RH WIND       PRES   REMARKS
COLBY KS       SUNNY     48  28  46 NW24G31   29.60F
GOVE KS          N/A     50  32  50 MISG        N/A
NORTON KS      SUNNY     50  21  32 W23G40    29.52F
TRIBUNE KS     MOSUNNY   48  28  46 NW17G26   29.65F
KIT CARSON CO    N/A     43  25  48 MISG        N/A
$$


USA.gov is the U.S. government's official web portal to all federal, state and local government web resources and services.